Simultaneous Nadir Overpasses (SNOs) Predictions

Prediction of SNOs between GOES-16 and METOP-C Satellite Orbit:

Table of predicted SNOs for the next 14.0 days since TLE Epoch: 2/13/2021
Index Date Time (GOES-16) GOES-16 Lat,Lon METOP-C Lat,Lon Distance(km) Time Diff (sec)
1 02/14/2021 14:43:36 -0.00, -75.15 0.67, -78.14 341.19 80
2 02/15/2021 14:22:56 -0.00, -75.15 -0.44, -73.14 228.68 80
3 02/17/2021 02:44:37 0.00, -75.14 -0.61, -77.74 296.79 80
4 02/18/2021 02:21:18 0.00, -75.15 0.56, -72.75 273.34 80
5 02/19/2021 14:42:50 0.00, -75.19 0.49, -77.31 241.45 80
6 02/20/2021 14:19:31 -0.00, -75.20 -0.67, -72.32 328.92 80
7 02/22/2021 02:41:10 -0.00, -75.19 -0.41, -76.90 195.74 80
8 02/23/2021 02:17:52 -0.00, -75.20 0.76, -71.92 374.70 80
9 02/24/2021 14:39:23 0.01, -75.25 0.30, -76.47 139.75 80
10 02/25/2021 14:16:05 0.00, -75.27 -0.86, -71.49 431.00 80
11 02/27/2021 02:37:44 -0.00, -75.27 -0.21, -76.08 92.63 80
